GFSGBSN_700_temp_237.txt.gz
Temp
3 4 3 4 5 6 6 6 7 7 7 7 7 7 7 8 8 8 8 9 9 9 9 9 9 9 9 10 10 10 10 10 10 11 10 10 9 9 9 10 10 11 12 12 12 12 12
2 3 2 3 4 4 6 6 7 7 7 6 7 7 7 7 8 8 8 9 9 9 9 9 9 9 9 10 10 10 10 10 10 10 10 9 8 9 9 9 10 10 11 11 12 12 12
1 2 2 3 3 4 4 6 6 7 7 7 7 7 7 7 7 7 8 8 9 8 8 9 9 9 9 10 10 10 11 10 10 11 11 8 8 9 10 10 10 10 10 11 11 11 12
3 3 2 2 2 3 4 4 5 5 6 7 7 6 6 7 7 7 7 8 8 8 8 8 8 9 10 10 10 10 10 11 10 10 11 10 10 10 10 9 10 9 10 10 13 12 12
1 3 3 2 2 2 3 4 4 4 5 6 6 6 6 6 6 7 7 7 8 8 8 8 8 8 10 11 11 10 10 11 10 9 10 11 10 9 9 9 9 10 10 11 12 13 13
-0 1 2 3 2 2 2 3 3 4 4 5 6 6 6 6 6 6 7 7 7 8 7 7 8 8 9 9 11 11 10 10 9 8 8 9 9 9 9 8 9 10 10 11 11 12 13
-2 -1 0 2 3 2 1 2 2 3 3 4 5 5 5 5 5 5 6 6 6 6 7 8 8 8 9 9 9 10 10 10 9 9 8 9 8 10 10 10 10 10 11 11 12 12 12
-4 -4 -3 -1 0 3 3 1 2 2 3 3 4 4 4 5 5 5 5 6 4 5 7 8 8 8 9 8 8 10 9 9 10 10 9 8 8 11 10 10 10 10 11 11 11 12 12
-5 -5 -5 -4 -3 -2 1 2 1 1 1 2 3 3 3 3 4 5 5 6 4 5 5 8 8 9 9 8 9 10 9 9 9 9 8 8 11 10 10 10 10 10 10 10 10 11 11
-6 -5 -5 -5 -5 -4 -3 0 2 -0 1 1 2 2 2 3 4 5 5 4 3 3 4 7 9 9 9 9 9 10 10 9 8 9 9 8 10 11 10 10 10 10 10 10 11 11 11
-7 -6 -6 -6 -6 -5 -5 -3 0 1 0 -1 1 1 2 3 4 4 5 3 3 2 1 8 9 8 9 9 10 10 10 9 9 9 8 10 10 10 10 10 10 10 10 10 10 10 10
-7 -7 -6 -6 -6 -6 -5 -5 -3 -0 0 0 -0 -0 -0 1 3 3 2 2 2 2 2 7 8 8 8 9 9 9 9 9 9 8 8 9 10 10 10 10 10 10 10 10 10 10 8
-8 -8 -7 -7 -6 -6 -6 -6 -5 -3 0 -0 -1 -1 -2 0 4 1 0 2 0 1 5 7 8 9 8 9 9 8 8 8 8 6 7 9 9 10 9 10 10 10 9 9 8 8 7
-9 -9 -8 -8 -7 -7 -7 -6 -6 -4 -1 -0 -0 -0 -1 -0 1 -1 -0 0 1 3 5 8 8 9 8 9 9 8 7 7 7 8 9 9 9 11 11 10 10 11 10 9 8 7 8
-9 -9 -9 -9 -9 -8 -7 -6 -6 -5 -3 -1 -1 -0 -1 0 1 -1 -0 -1 1 4 5 7 8 7 8 7 7 7 7 7 8 8 8 9 10 11 11 12 10 10 9 10 10 10 9
-9 -9 -10 -9 -9 -8 -8 -8 -7 -6 -4 -1 -1 -1 -1 0 -0 -2 -1 -1 2 4 5 7 7 7 7 7 6 6 6 9 8 8 8 9 10 11 11 11 10 11 10 10 10 7 6
-10 -10 -9 -9 -9 -8 -8 -8 -7 -6 -5 -4 -4 -2 -2 -1 -2 -2 -2 -0 3 3 4 5 6 7 8 8 7 7 8 9 9 10 8 8 9 11 10 10 10 10 10 10 10 9 6
-10 -10 -9 -9 -9 -9 -8 -8 -7 -7 -6 -6 -2 -3 -2 -2 -4 -1 -2 2 2 3 4 5 6 7 7 7 8 7 8 8 9 9 8 8 8 8 10 10 10 10 10 10 9 8 9
-10 -10 -10 -9 -9 -9 -9 -8 -7 -6 -7 -6 -5 -2 -2 -3 -3 -2 2 0 1 1 4 4 5 6 6 7 7 8 8 8 9 8 8 8 8 8 8 9 10 9 9 9 9 10 9
-10 -10 -10 -10 -10 -10 -9 -9 -8 -6 -7 -7 -5 -2 -2 -4 -3 2 -1 -1 -0 1 3 4 5 5 5 6 7 8 8 8 8 8 8 8 8 8 8 9 9 9 9 9 9 8 9
-10 -10 -10 -10 -10 -10 -9 -9 -8 -7 -7 -7 -4 -2 -2 -3 -4 0 2 3 0 1 3 3 3 4 4 5 6 6 6 7 7 8 7 7 7 8 8 8 8 8 8 9 8 9 7
-10 -10 -10 -10 -10 -10 -9 -9 -8 -7 -7 -6 -3 -2 -2 -3 2 0 -2 -0 3 4 4 3 3 4 3 5 6 6 6 6 6 7 7 7 7 7 7 7 7 7 8 7 7 7 7
-10 -10 -10 -10 -10 -9 -10 -8 -7 -7 -6 -5 -3 -2 -1 -1 -1 -3 -1 2 3 1 3 3 4 3 3 4 4 5 5 5 5 5 5 5 5 5 5 5 5 5 6 7 7 6 6
-10 -10 -10 -9 -9 -9 -9 -7 -7 -6 -5 -3 -2 -2 -2 -2 -3 -0 2 2 -0 0 2 3 2 3 3 3 3 3 4 4 4 4 4 4 4 4 4 3 1 5 6 6 6 6 6
-11 -10 -10 -10 -9 -9 -8 -7 -7 -5 -5 -3 -2 -2 -2 -1 -0 0 -2 -1 -1 -1 0 1 3 3 3 3 2 3 3 2 3 3 4 3 3 3 3 2 3 4 4 5 5 5 5
-11 -10 -9 -9 -9 -8 -7 -7 -5 -2 -4 -3 -2 -2 -2 -1 -2 1 -1 -1 -1 -0 -0 1 1 2 2 2 2 2 1 2 2 2 3 3 3 2 2 0 2 5 4 4 2 3 5
-11 -10 -9 -9 -9 -7 -7 -4 1 -2 -2 -3 -2 -2 -2 -2 -2 -2 -1 0 -0 -0 1 1 1 1 1 1 0 1 -0 1 2 2 2 2 2 2 1 1 2 2 2 3 4 4 5
-10 -10 -9 -9 -8 -6 -7 -3 -2 -2 -2 -3 -3 -2 -2 -2 -2 -1 -2 -1 -0 -0 1 1 1 1 1 -0 -1 -0 -0 1 1 2 2 2 1 0 0 0 0 2 2 2 2 2 3
-9 -9 -9 -9 -8 -6 -6 -4 -4 -4 -3 -3 -2 -2 -2 -2 -2 -2 -1 -1 -1 -0 -1 0 0 0 -0 -0 -1 -1 -0 -0 -0 -0 0 1 1 1 1 1 1 1 1 1 1 1 2

GFSGBSN_700_temp_243.txt.gz
Temp
2 2 2 3 3 4 4 5 5 5 6 6 7 7 7 7 7 8 8 9 9 9 9 9 9 10 10 10 10 11 11 11 11 10 10 10 9 9 10 10 10 9 11 10 11 11 11
2 1 2 2 3 3 3 4 4 5 5 6 6 7 7 7 7 7 8 8 8 9 9 9 9 9 10 10 10 11 11 11 11 10 10 10 10 9 10 10 10 10 11 11 11 11 11
2 2 1 1 2 2 3 3 3 4 4 5 5 6 6 7 7 7 7 8 8 8 9 9 9 9 9 10 9 11 11 11 11 10 10 10 10 10 10 10 10 10 11 11 12 12 11
1 1 2 2 1 2 2 3 3 3 4 4 5 5 6 6 6 6 7 7 7 7 8 8 9 9 10 9 10 10 10 10 10 11 10 10 9 10 9 10 10 10 10 11 11 11 11
-0 -0 1 1 1 2 2 2 2 2 2 3 4 5 5 5 5 6 6 6 7 7 8 8 8 8 10 10 10 10 10 10 10 10 10 9 9 9 10 9 9 10 9 9 11 11 11
-1 -1 -0 -0 1 1 2 2 2 2 2 3 3 4 4 5 5 5 5 5 6 6 7 7 8 8 9 9 10 10 10 10 10 9 9 9 8 9 10 9 9 9 9 9 10 11 10
-2 -2 -1 -1 -0 0 1 1 2 2 2 2 2 3 3 3 4 5 5 4 5 5 6 7 8 8 9 9 10 10 10 9 9 9 10 9 8 11 11 9 9 9 9 9 11 11 10
-2 -2 -2 -2 -1 -0 -0 1 1 1 2 2 2 2 3 2 3 3 5 4 4 4 6 7 7 8 8 8 9 9 9 10 9 10 9 8 10 11 10 9 9 9 9 9 10 10 10
-2 -2 -2 -2 -2 -2 -1 -1 0 1 1 1 1 1 2 2 2 3 4 5 3 3 4 6 7 8 9 7 8 9 9 10 10 9 9 9 11 10 9 10 9 9 9 9 9 10 10
-3 -3 -3 -3 -3 -3 -2 -2 -1 -1 -0 0 0 1 1 2 1 3 3 3 2 2 2 5 6 8 8 8 8 9 8 8 9 8 9 8 9 10 11 10 10 9 11 10 9 9 9
-3 -3 -3 -3 -3 -3 -3 -3 -2 -2 -2 -1 -1 -1 -0 1 0 2 3 2 1 0 -1 5 6 7 8 8 10 9 9 8 9 9 8 10 10 10 10 11 9 10 10 10 9 9 9
-4 -4 -4 -4 -4 -4 -4 -3 -3 -4 -3 -3 -3 -2 -1 0 0 1 0 -0 -1 -1 -1 4 6 7 7 8 9 8 8 9 8 8 7 9 8 9 9 9 9 9 9 9 9 9 7
-5 -5 -5 -5 -5 -5 -5 -5 -5 -5 -5 -5 -4 -4 -3 -1 0 -0 -1 -2 -3 -1 2 4 5 7 8 9 9 9 8 9 8 7 7 9 8 10 9 9 9 8 8 8 7 6 5
-5 -5 -5 -6 -6 -6 -6 -6 -6 -6 -6 -6 -6 -5 -4 -2 -1 -1 -1 -5 -3 -2 2 5 6 7 8 8 8 9 8 8 9 9 9 8 8 10 11 10 10 9 9 9 6 4 6
-6 -6 -6 -7 -7 -7 -7 -7 -7 -7 -7 -6 -6 -6 -4 -3 -2 -1 -2 -4 -3 -2 2 3 5 6 6 7 8 8 7 8 10 10 8 8 8 10 11 10 10 9 8 10 9 7 6
-8 -8 -8 -8 -7 -8 -8 -8 -8 -8 -8 -7 -7 -7 -5 -5 -3 -3 -4 -3 -4 -1 2 2 4 5 6 7 7 7 8 9 9 9 9 8 8 9 10 10 9 8 10 8 8 6 5
-9 -9 -9 -9 -9 -9 -9 -9 -9 -9 -9 -9 -9 -8 -6 -6 -6 -7 -7 -3 -3 1 0 1 3 4 5 6 7 7 7 8 9 10 9 7 7 9 9 10 10 8 8 9 9 9 4
-9 -9 -10 -10 -9 -9 -9 -10 -10 -10 -10 -10 -10 -10 -8 -8 -7 -7 -8 -4 -2 2 -0 0 1 3 5 6 7 7 8 9 9 10 9 9 7 7 9 9 9 8 10 9 9 7 8
-10 -10 -10 -10 -10 -10 -10 -10 -10 -10 -10 -10 -11 -10 -10 -9 -8 -7 -7 -4 -3 -2 -1 -0 0 2 4 5 5 7 8 8 9 9 9 8 6 6 7 8 8 8 9 9 9 9 9
-11 -11 -11 -11 -11 -10 -10 -10 -10 -10 -10 -11 -11 -11 -11 -10 -8 -8 -7 -5 -3 -2 -2 -0 1 2 3 4 4 5 7 7 7 8 8 8 8 8 7 10 10 9 9 9 9 8 8
-11 -11 -11 -11 -11 -11 -10 -10 -10 -11 -11 -11 -12 -12 -11 -9 -8 -7 -7 -7 -5 -3 -2 -2 -1 -1 3 1 3 4 6 6 7 7 7 7 7 8 9 9 9 9 9 9 9 9 8
-12 -12 -12 -12 -11 -11 -11 -10 -10 -11 -11 -12 -11 -11 -11 -10 -8 -8 -7 -6 -4 -4 -1 -1 -1 2 2 1 2 4 5 6 7 7 6 6 7 7 7 7 7 8 8 8 7 8 8
-11 -11 -12 -12 -12 -12 -11 -11 -10 -11 -11 -12 -11 -11 -11 -10 -8 -9 -8 -4 -4 -3 -1 -1 2 -0 1 2 2 3 4 5 6 7 7 7 7 7 6 7 7 6 8 7 7 7 7
-11 -11 -12 -12 -13 -13 -11 -11 -10 -10 -11 -11 -11 -10 -11 -11 -9 -9 -8 -6 -5 -3 -1 -2 -1 0 3 1 2 2 4 4 5 5 5 6 7 6 6 4 2 7 7 8 7 7 7
-11 -11 -12 -12 -12 -12 -11 -11 -10 -10 -10 -11 -11 -11 -11 -11 -9 -8 -8 -6 -5 -4 -3 -2 0 1 -0 1 1 1 3 4 5 4 5 4 5 5 5 4 6 5 6 6 6 6 6
-11 -11 -11 -11 -11 -11 -11 -11 -10 -10 -10 -11 -11 -11 -11 -11 -9 -7 -7 -6 -5 -4 -3 -2 -2 -1 -1 0 1 0 1 1 2 3 4 3 3 3 3 2 0 5 6 6 5 5 6
-11 -10 -11 -11 -11 -11 -11 -11 -11 -10 -10 -10 -10 -10 -11 -11 -7 -9 -9 -7 -5 -4 -3 -3 -2 -2 -2 -1 -1 1 1 2 3 3 3 3 2 2 2 2 3 4 4 4 4 5 5
-10 -10 -10 -10 -11 -11 -10 -10 -11 -10 -10 -10 -9 -9 -9 -9 -7 -8 -8 -7 -6 -4 -3 -3 -3 -2 -2 -2 -2 -1 1 1 2 3 4 4 2 2 1 1 1 3 4 3 4 4 4
-9 -10 -10 -10 -10 -10 -10 -10 -10 -10 -9 -10 -10 -9 -9 -10 -9 -8 -7 -7 -5 -4 -4 -2 -1 -2 -2 -2 -1 -0 1 1 2 2 2 3 3 4 3 3 3 3 3 3 3 3 2

GFSGBSN_700_temp_246.txt.gz
Temp
2 1 3 3 3 4 4 5 5 6 6 6 6 7 7 7 7 7 7 8 8 8 9 9 9 9 9 10 10 10 10 10 10 10 10 10 10 10 10 9 9 9 10 11 11 12 12
2 2 1 2 2 3 3 3 4 5 5 5 5 6 6 7 7 7 7 7 7 8 8 9 9 9 9 10 10 10 10 10 10 10 10 10 10 10 9 10 9 9 10 10 11 11 11
2 2 2 2 1 2 3 3 3 3 4 4 5 5 6 6 6 7 7 7 7 7 8 8 9 9 9 10 9 10 10 10 10 10 10 10 9 9 10 10 10 10 11 11 11 11 11
1 1 2 2 2 2 2 2 2 3 3 3 4 4 5 5 6 6 6 6 6 7 7 8 8 9 10 9 9 10 9 10 10 10 10 10 10 9 9 10 10 10 10 10 10 10 10
0 1 1 1 1 2 2 2 2 2 2 3 3 3 4 4 5 5 6 6 6 6 7 7 7 8 10 10 9 9 10 10 9 9 9 9 9 9 9 10 10 9 9 9 10 10 10
-1 -0 -0 -0 0 0 1 2 2 2 2 2 2 2 3 4 4 5 5 6 5 5 5 6 7 7 8 9 10 10 10 10 9 9 9 9 8 9 10 9 10 9 8 9 9 10 10
-1 -1 -1 -1 -0 0 0 1 1 1 2 2 2 2 2 2 3 4 5 5 5 5 5 6 7 7 8 9 8 9 9 9 9 9 9 8 8 10 11 9 9 9 9 8 10 10 10
-2 -2 -2 -1 -1 -1 -0 -0 0 0 1 1 2 2 2 2 3 3 4 3 3 4 5 6 6 6 7 7 8 9 9 9 9 10 9 8 10 10 9 9 9 8 9 10 10 10 9
-2 -2 -2 -2 -2 -1 -1 -1 -1 -0 -0 0 1 1 2 2 2 2 3 2 2 3 3 5 6 6 7 6 7 8 8 8 9 9 9 9 10 11 9 9 9 9 9 10 9 9 9
-3 -2 -2 -2 -2 -2 -1 -1 -2 -1 -1 -1 -1 0 1 1 1 1 2 2 1 1 0 4 6 7 7 6 7 8 8 7 8 9 8 8 9 9 9 10 9 9 10 10 9 9 9
-3 -3 -3 -2 -3 -3 -3 -2 -2 -2 -2 -2 -2 -1 -0 0 1 1 1 1 -1 -4 -2 4 6 7 7 7 9 9 8 7 7 8 8 9 10 10 9 10 9 10 8 9 9 9 9
-3 -3 -2 -2 -3 -3 -3 -3 -3 -3 -2 -2 -2 -2 -2 -1 -0 -1 -1 -0 -0 -5 -3 3 4 6 6 7 8 7 8 7 7 7 7 8 8 8 9 9 9 9 8 8 8 8 7
-3 -3 -3 -3 -3 -3 -3 -4 -4 -3 -3 -3 -3 -3 -2 -2 -2 -2 -2 -2 -3 -4 -3 2 4 5 7 8 8 8 7 7 7 6 7 9 8 8 8 8 8 8 7 7 6 5 5
-3 -3 -4 -4 -4 -4 -4 -4 -5 -4 -4 -4 -4 -3 -3 -3 -4 -3 -3 -2 -4 -2 -3 3 4 4 6 7 7 8 7 6 7 7 8 7 8 9 10 10 10 10 8 7 5 4 5
-4 -4 -4 -5 -5 -5 -5 -5 -6 -6 -6 -6 -5 -5 -4 -5 -5 -4 -4 -6 -4 -2 1 3 4 4 5 6 6 7 7 7 8 9 7 8 8 10 10 11 9 8 8 9 8 7 6
-5 -5 -6 -6 -6 -6 -6 -6 -6 -7 -7 -8 -7 -6 -5 -6 -6 -6 -6 -7 -5 -2 -1 1 2 4 4 5 5 6 7 7 7 8 9 9 9 9 10 9 9 9 9 7 7 4 4
-6 -6 -7 -7 -7 -7 -7 -8 -8 -8 -8 -9 -9 -8 -7 -7 -8 -7 -7 -5 -5 -1 -3 -2 1 3 4 4 5 6 7 7 8 9 8 8 8 9 9 9 10 8 7 8 9 8 4
-7 -7 -8 -8 -7 -7 -8 -8 -10 -10 -10 -10 -10 -10 -9 -9 -9 -8 -6 -4 -4 -1 -3 -2 -1 1 2 4 4 5 6 8 8 9 7 8 7 7 9 8 9 9 9 9 8 7 8
-8 -8 -8 -8 -8 -8 -9 -9 -10 -10 -10 -11 -11 -10 -11 -10 -10 -9 -7 -6 -4 -4 -6 -3 -2 0 2 3 1 4 5 7 8 8 8 8 6 6 6 7 7 7 9 8 8 8 8
-8 -8 -9 -9 -10 -10 -10 -10 -10 -10 -10 -11 -12 -12 -12 -11 -10 -9 -9 -7 -6 -4 -6 -4 -3 -0 0 1 2 3 5 5 7 7 8 7 7 7 7 9 10 9 9 8 8 7 8
-9 -9 -9 -10 -11 -11 -11 -11 -11 -10 -11 -11 -12 -12 -11 -11 -10 -9 -9 -9 -8 -8 -8 -5 -4 -3 -1 1 2 2 5 4 5 6 7 6 6 6 7 8 9 9 10 9 8 8 7
-9 -10 -10 -11 -11 -11 -11 -11 -11 -11 -11 -10 -11 -11 -10 -10 -11 -10 -9 -8 -9 -8 -8 -6 -3 -2 -1 0 2 3 3 3 4 5 6 5 5 5 6 7 7 8 8 8 9 8 8
-9 -10 -10 -11 -11 -11 -12 -11 -12 -12 -11 -11 -10 -10 -11 -11 -10 -11 -9 -9 -9 -8 -7 -6 -5 -3 -2 0 1 1 2 3 3 4 5 4 4 5 5 6 6 5 7 8 8 7 8
-10 -10 -11 -11 -11 -11 -12 -12 -12 -12 -11 -11 -10 -10 -12 -12 -11 -10 -9 -9 -9 -8 -8 -6 -6 -5 -1 -1 -0 -0 0 0 2 3 2 2 3 4 4 4 2 7 8 8 8 7 7
-10 -10 -11 -12 -12 -11 -12 -12 -12 -12 -11 -11 -9 -11 -10 -12 -11 -10 -10 -10 -8 -9 -9 -7 -6 -4 -3 -2 -2 -2 -2 -1 -1 0 3 4 4 3 4 4 5 6 6 6 7 7 7
-11 -11 -12 -11 -11 -11 -11 -11 -11 -12 -11 -11 -10 -10 -11 -11 -11 -9 -9 -8 -9 -10 -8 -8 -6 -5 -3 -3 -2 -2 -2 -1 -1 2 3 3 3 4 3 3 3 4 6 6 5 6 6
-11 -11 -11 -11 -11 -11 -11 -11 -11 -11 -11 -11 -10 -10 -11 -11 -10 -10 -10 -9 -9 -10 -9 -7 -5 -5 -3 -2 -2 -2 -2 -0 -0 2 2 2 3 3 3 4 4 5 5 5 5 6 6
-11 -11 -11 -10 -10 -10 -10 -10 -11 -11 -11 -11 -10 -10 -10 -10 -9 -9 -9 -10 -10 -10 -9 -6 -5 -4 -3 -2 -2 -2 -0 -0 0 1 2 2 2 3 2 2 1 4 4 4 5 5 5
-7 -6 -7 -10 -10 -10 -10 -10 -10 -10 -11 -11 -11 -11 -11 -10 -9 -10 -9 -9 -10 -9 -8 -7 -4 -4 -3 -3 -2 -1 -0 0 1 1 2 2 2 3 3 4 4 4 4 4 4 4 4

GFSGBSN_700_temp_252.txt.gz
Temp
2 5 5 4 5 5 5 5 5 5 5 6 6 6 6 6 7 7 7 7 7 8 8 9 9 9 9 9 9 10 9 9 9 9 9 9 9 9 8 9 9 10 9 10 11 11 11
2 2 2 3 5 5 5 5 5 5 5 5 6 6 6 6 6 6 7 7 7 7 8 8 9 9 9 9 9 9 9 10 10 9 9 9 9 9 9 9 9 10 10 10 11 11 11
2 2 2 2 2 5 5 5 4 4 4 5 5 5 5 6 6 6 6 6 6 7 7 8 8 9 9 9 9 9 9 9 9 9 9 9 9 9 9 8 10 10 11 11 10 10 10
2 2 2 2 3 3 3 4 5 5 4 4 4 4 5 5 5 6 5 5 6 6 7 7 7 8 9 9 9 9 9 9 9 9 9 9 9 9 9 9 9 9 9 11 10 10 10
1 2 2 2 2 2 3 3 4 4 4 4 4 4 4 5 5 6 6 5 5 5 6 6 7 7 8 9 9 9 9 9 9 9 9 9 9 9 10 8 9 9 11 11 11 10 9
1 1 1 1 2 2 2 3 3 3 3 3 4 5 5 4 4 4 5 4 4 5 5 6 6 7 7 7 8 9 9 9 9 8 8 8 8 8 8 8 11 12 10 10 10 10 9
-0 -0 0 0 0 1 1 2 2 2 2 3 3 4 4 5 4 4 4 3 3 4 5 5 5 6 7 7 8 8 8 8 8 8 8 8 7 9 10 9 9 8 9 9 9 9 9
-1 -1 -1 -1 -0 0 -0 0 1 1 1 1 2 3 3 3 3 4 3 2 3 3 4 5 5 6 6 6 7 7 8 7 8 8 8 7 8 9 9 8 8 8 8 9 9 10 10
-1 -1 -1 -1 -1 -1 -1 -1 -1 -0 -0 0 1 1 1 2 2 2 3 3 2 2 2 4 5 5 6 6 7 8 7 7 7 7 7 8 9 9 8 8 8 8 8 9 9 9 10
-2 -2 -2 -2 -2 -2 -1 -1 -1 -1 -1 -0 -0 -0 -0 0 1 1 2 2 2 2 1 2 4 6 6 6 6 7 7 6 6 6 7 8 9 8 8 8 8 9 9 8 8 9 11
-2 -2 -2 -2 -2 -2 -2 -2 -2 -2 -1 -1 -1 -1 -1 -1 -1 -0 1 1 0 -0 1 3 4 5 5 6 7 6 8 7 6 6 6 8 7 8 7 9 8 9 8 9 8 8 9
-3 -3 -3 -3 -3 -3 -2 -2 -2 -2 -2 -2 -2 -2 -2 -2 -2 -1 -1 -1 -1 -2 -1 2 4 5 5 6 7 5 5 6 6 5 6 7 7 7 8 9 8 8 8 8 8 9 10
-3 -3 -3 -3 -3 -3 -3 -3 -2 -2 -2 -2 -2 -2 -2 -3 -3 -3 -3 -4 -3 -2 1 2 3 3 3 4 5 5 5 5 5 5 5 6 7 6 8 7 8 7 8 10 10 11 12
-4 -4 -4 -4 -4 -3 -3 -3 -3 -3 -3 -2 -2 -2 -3 -3 -3 -3 -3 -5 -4 -1 0 2 2 1 2 3 3 3 4 4 5 6 8 7 7 7 7 7 8 7 8 10 11 12 14
-4 -5 -4 -4 -4 -3 -3 -3 -3 -3 -3 -3 -3 -3 -3 -3 -3 -3 -4 -4 -3 -2 -2 -2 -1 0 1 2 2 3 3 5 6 5 6 8 8 8 7 8 7 7 7 9 9 10 9
-5 -5 -5 -4 -4 -4 -4 -4 -4 -4 -4 -4 -4 -4 -4 -4 -4 -4 -4 -4 -3 -3 -2 -2 -1 -0 1 2 2 2 3 4 5 5 5 6 7 8 8 6 6 7 8 8 7 9 10
-5 -5 -5 -5 -5 -5 -5 -5 -6 -6 -5 -5 -5 -5 -5 -5 -5 -5 -5 -4 -5 -4 -3 -3 -3 -2 -1 -1 -0 2 3 3 4 5 5 7 5 7 7 6 8 6 7 7 9 9 12
-6 -6 -6 -5 -6 -5 -6 -6 -6 -7 -7 -6 -6 -6 -6 -6 -6 -6 -5 -5 -5 -4 -4 -4 -4 -4 -4 -3 -2 -1 1 2 4 4 5 5 4 4 6 7 7 8 7 8 9 10 9
-6 -6 -6 -6 -7 -7 -7 -7 -7 -7 -8 -8 -8 -8 -8 -9 -9 -9 -8 -6 -6 -6 -6 -5 -5 -4 -4 -4 -4 -2 0 2 2 2 3 4 3 3 3 5 6 6 7 8 8 8 9
-6 -7 -7 -7 -7 -8 -8 -8 -8 -8 -9 -9 -10 -10 -11 -10 -9 -10 -9 -9 -9 -8 -6 -5 -6 -6 -5 -5 -4 -4 -2 1 1 2 1 3 4 3 3 5 7 7 7 7 7 7 8
-7 -7 -7 -8 -8 -8 -8 -8 -9 -9 -10 -11 -11 -10 -11 -10 -11 -10 -10 -10 -9 -9 -9 -8 -7 -7 -6 -6 -5 -4 -3 -2 -1 -0 -0 -0 2 2 3 4 4 7 7 7 7 7 8
-8 -7 -8 -8 -8 -8 -8 -9 -9 -9 -11 -11 -10 -11 -11 -11 -10 -11 -11 -11 -10 -9 -8 -8 -8 -7 -6 -7 -6 -5 -5 -5 -5 -1 -2 -1 -1 1 2 3 4 4 6 7 8 7 7
-7 -8 -8 -8 -8 -8 -8 -9 -9 -10 -11 -11 -11 -11 -11 -10 -11 -11 -10 -10 -10 -10 -9 -9 -9 -8 -8 -7 -7 -7 -7 -7 -6 -7 -4 -4 -2 -1 1 3 4 4 4 5 7 7 7
-8 -8 -8 -8 -8 -8 -9 -9 -9 -10 -11 -11 -11 -12 -11 -11 -11 -11 -11 -10 -10 -10 -10 -9 -9 -9 -7 -9 -8 -8 -7 -8 -8 -6 -5 -5 -3 -2 -1 2 1 3 3 4 5 6 6
-8 -8 -8 -8 -8 -9 -9 -9 -10 -10 -11 -11 -11 -12 -12 -11 -12 -11 -11 -11 -10 -10 -10 -10 -9 -10 -10 -9 -9 -9 -8 -7 -7 -6 -4 -4 -3 -2 -1 -0 2 3 4 5 5 5 6
-8 -8 -8 -8 -9 -9 -10 -11 -11 -11 -11 -12 -12 -12 -12 -12 -11 -12 -11 -11 -11 -10 -10 -10 -10 -10 -10 -10 -10 -10 -9 -6 -4 -2 -2 -2 -4 -2 -1 -1 1 4 4 4 4 4 6
-8 -8 -8 -8 -9 -10 -11 -11 -11 -11 -11 -12 -11 -12 -12 -12 -12 -11 -11 -11 -11 -11 -11 -10 -10 -10 -10 -10 -10 -10 -9 -8 -7 -5 -2 -2 -3 -2 -1 -1 2 3 4 4 3 4 6
-8 -8 -7 -7 -7 -8 -9 -10 -11 -11 -11 -11 -11 -11 -12 -11 -11 -11 -10 -11 -11 -11 -11 -8 -10 -9 -10 -10 -10 -10 -9 -8 -7 -6 -5 -2 -2 -2 -2 -1 0 3 3 4 4 5 5
-7 -7 -7 -7 -8 -8 -8 -9 -10 -10 -10 -11 -11 -11 -11 -12 -11 -10 -10 -11 -11 -10 -11 -10 -10 -10 -10 -10 -9 -9 -9 -8 -7 -6 -3 -3 -1 0 0 0 3 2 3 4 5 5 3